Showing default

PRSS 1, 43530

Orbit data source: Space-Track

PRSS 1, 43530 is a payload satellite owned by SUPARCO (PK) in SSO that was launched on Mon, 09 Jul 2018 UTC via a CHANG ZHENG 2C launch vehicle from the Jiuquan Satellite Launch Center, China (JSC). Payload-class satellites include a variety of spacecraft equipped with specific instruments for various scientific and technological missions. These include communications satellites like Starlink; space stations such as the ISS; scientific satellites like the Hubble; Earth observation satellites from companies like Planet Labs, Umbra, and HawkEye 360; GPS; miniature CubeSats for education and research; and military/defense satellites.

Loading next visibility...
Identifier
43530, 2018-056B
Orbit
SSO
Country
Flag of PKPK / PAKI
Related business
Manufacturer
DFH
Mission
Operational Civil Imaging
Bus & Motor
CAST-2000, Unknown motor
Mass
~800 kg wet, ~800 kg dry
Launch date (UTC)
2018-07-09 (8 years ago)
Launch vehicle
CHANG ZHENG 2C
Launch site
Jiuquan Satellite Launch Center, China (JSC)
Object type
Payload
Rocket body
Debris
Shape & HBR
Box + 2 Pan, 4.3 m
Radar Cross Section
14.475 m², Large (>1 m²)

Expand to show TLE details & history
Last TLE update: 6 hours ago

TLE from 6 hours ago
0 PRSS 1
1 43530U 18056B   26127.27288096  .00000676  00000-0  91868-4 0  9990
2 43530  97.7829 196.2728 0001678  96.3086 263.8318 14.81924555422371
Epoch: 2026-05-07T06:32Z
TLE epoch observation values (Epoch: 2026-05-07T06:32:56.914Z)
Latitude
-0.0001°
Longitude
-127.08572°
Altitude
626.41 km
Speed
7.545 km/s
True Right ascension
13h 05m 05s
True Declination
0° 00' 00"
Sunlit
Object was in full shadow at epoch
Visualization orbit readout
Latitude
Unknown
Longitude
Unknown
Altitude
Unknown
Speed
Unknown
Apparent Right ascension
Unknown
Apparent Declination
Unknown
Sunlit
N/A
Visualization observer readout
Local Sidereal Time
20:45:01
Azimuth
Unknown
Elevation
Unknown
Doppler factor
Unknown
Orbital elements
Apogee altitude
621.463 km
Perigee altitude
619.115 km
Semi-major axis
6,998.426 km
Eccentricity
0.00017
Inclination
97.7829°
RAAN
196.2728°
Arg. of periapsis
96.3086°
True anomaly
263.81268°
Mean anomaly
263.8318°
Eccentric anomaly
263.82224°
Mean motion
3.70717 °/min
Orbital period
97.11 mins
BSTAR
0.000091868
Loading maneuver chart data...
Computing Atmospheric mass density...
Loading historical data...
Loading historical data...
Loading historical data...
Loading historical data...
Loading historical data...
Loading historical data...
Loading historical data...

Documentation

Showing up to 5 results
|